Location: Hohe Wand Kleine Kanzel
(47.8330°N, 16.0170°E)
Time: 14:58:29
(UTC+02:00)

Vanguard 3 - Pass Details

Date: 05 August 2021
Orbit: 509 x 3260 km, 33.4° (Epoch: 27 September)

Event Time Altitude Azimuth Distance (km) Brightness Sun altitude
Rises 21:40:59 0° 268° (W) 6,168 12.4 -11.4°
Reaches altitude 10° 21:44:58 10° 262° (W) 5,456 11.9 -11.9°
Maximum altitude 22:00:43 42° 200° (SSW) 4,079 10.5 -13.8°
Enters shadow 22:14:42 18° 144° (SE) 5,414 10.7 -15.4°
